Location: Eekst
(53.0191°N, 6.7366°E)
Time: 20:06:13
(UTC+00:00)

Cosmos 2219 Rocket - Pass Details

Date: 15 May 2026
Orbit: 826 x 846 km, 71.0° (Epoch: 7 June)

Event Time Altitude Azimuth Distance (km) Brightness Sun altitude
Rises 20:12:46 0° 328° (NNW) 3,403 7.3 -6.4°
Reaches altitude 10° 20:15:21 10° 336° (NNW) 2,469 6.0 -6.7°
Maximum altitude 20:20:45 43° 47° (NE) 1,169 3.0 -7.3°
Drops below altitude 10° 20:26:08 10° 119° (ESE) 2,466 4.0 -7.8°
Enters shadow 20:26:31 - 120° (ESE) 2,603 4.1 -7.9°
